Simultaneous Nadir Overpasses (SNOs) Predictions

Prediction of SNOs between NOAA-15 and METOP-C Satellite Orbit:

Table of predicted SNOs for the next 14.0 days since TLE Epoch: 1/28/2024
Index Date (NOAA-15) Time (NOAA-15) Lat,Lon (NOAA-15) SZA (NOAA-15 ) Date (METOP-C) Time (METOP-C) Lat,Lon (METOP-C) SZA (METOP-C ) Distance(km) Time Diff (sec)
1 02/05/2024 23:17:19 81.06,-130.91 98.43 02/05/2024 23:16:11 81.07,-131.09 98.39 3.22 68
2 02/06/2024 00:07:54 -81.08, 36.11 81.61 02/06/2024 00:06:52 -81.06, 36.21 81.63 2.27 62
3 02/06/2024 00:58:20 81.08,-156.41 98.39 02/06/2024 00:57:32 81.07,-156.24 98.39 2.95 48
4 02/06/2024 01:48:54 -81.07, 10.98 81.62 02/06/2024 01:48:13 -81.07, 11.06 81.63 1.41 41
5 02/06/2024 02:39:20 81.07, 178.46 98.38 02/06/2024 02:38:53 81.08, 178.62 98.39 3.02 27
6 02/06/2024 03:29:54 -81.07, -14.15 81.64 02/06/2024 03:29:34 -81.08, -14.08 81.63 1.76 20
7 02/06/2024 04:20:20 81.08, 152.96 98.34 02/06/2024 04:20:14 81.07, 153.10 98.35 2.59 6
8 02/06/2024 05:10:54 -81.08, -39.66 81.67 02/06/2024 05:10:55 -81.07, -39.60 81.67 1.24 1
9 02/06/2024 06:01:20 81.08, 127.82 98.33 02/06/2024 06:01:35 81.08, 127.95 98.35 2.34 15
10 02/06/2024 06:51:54 -81.07, -64.79 81.69 02/06/2024 06:52:16 -81.08, -64.75 81.67 1.03 22
11 02/06/2024 07:42:21 81.09, 102.32 98.29 02/06/2024 07:42:57 81.07, 102.43 98.31 2.44 36
12 02/06/2024 08:32:55 -81.09, -90.29 81.72 02/06/2024 08:33:38 -81.07, -90.26 81.71 1.48 43
13 02/06/2024 09:23:21 81.08, 77.18 98.28 02/06/2024 09:24:18 81.08, 77.29 98.31 1.77 57



Historial Predications of SNOs between NOAA-15 and METOP-C
